[[{"header":{"parameterUnit":"m.s-1","parameterCategory":2,"la1":30.2991,"la2":30.254,"lo1":-89.0895,"lo2":-89.0444,"dy":0.0017,"dx":0.0017,"nx":28,"ny":28,"refTime":"2024-08-10T03:00:00:Z","depth":"0","parameterNumber":2,"parameterNumberName":"U-component_of_CURRENTS"},"data":[0,0,0,0,0,0,0,0,0,0,0,0,0,0,0,0,0,0,0,0,0,0,0,0,0,0,0,0,0,0,0,0,0,0,0,0,0,0,0,0,0,0,0,0,0,0,0,0,0,0,0,0,0,0,0,0,0,0,0.0929,0.0926,0,0.0692,0.069,0.0688,0.0558,0.0558,0.0557,0.0556,0.0404,0.04,0.0397,0,0,0,0,0,0,0,0,0,0,0,0,0,0.1212,0.1208,0.0929,0.0926,0.0923,0.0693,0.069,0.0687,0.0558,0.0557,0.0557,0.0556,0.0405,0.0401,0.0397,0,0,0,0,0,0,0,0,0,0,0,0,0,0.1048,0.1207,0.093,0.0828,0.0816,0.0693,0.069,0.0686,0.0558,0.0557,0.0556,0.0556,0.0406,0.0401,0.0396,0.0385,0,0,0.038,0.0378,0,0,0,0,0,0,0,0,0.1057,0.1038,0.0846,0.0835,0.0821,0.065,0.0733,0.0588,0.0559,0.066,0.0556,0.0555,0.0492,0.048,0.0442,0.0378,0.0371,0.038,0.0377,0.0375,0.0373,0,0,0,0,0,0,0,0.1069,0.1047,0.0839,0.0843,0.0827,0.0774,0.075,0.0705,0.059,0.0651,0.0641,0.0608,0.0487,0.0447,0.0438,0.0369,0.038,0.0376,0.0372,0.037,0.0294,0.0295,0,0,0,0,0,0,0.1094,0.1058,0.0847,0.0832,0.0935,0.077,0.0743,0.0709,0.0588,0.0566,0.061,0.0603,0.0456,0.0444,0.0432,0.0434,0.0375,0.037,0.0367,0.0293,0.0295,0.0296,0,0,0,0,0,0,0.1101,0.1077,0.0856,0.0937,0.0904,0.0766,0.0729,0.0705,0.0663,0.0554,0.0535,0.0591,0.0455,0.0439,0.0391,0.0427,0.0368,0.0363,0.0292,0.0294,0.0295,0.0425,0,0,0,0,0,0,0.111,0.1082,0.1091,0.0938,0.0901,0.0804,0.0728,0.0701,0.0643,0.0633,0.0533,0.0517,0.0453,0.0399,0.0385,0.0419,0.0359,0.0291,0.0293,0.0295,0.042,0.0431,0.0441,0,0,0,0,0,0.1121,0.115,0.1092,0.1068,0.0909,0.0805,0.0782,0.0682,0.0644,0.064,0.0561,0.052,0.0403,0.0395,0.0379,0.0412,0.029,0.0292,0.0294,0.0415,0.0429,0.0441,0,0,0,0,0,0,0.1295,0.1133,0.1069,0.105,0.0938,0.0782,0.0783,0.0695,0.0627,0.0629,0.0522,0.0502,0.047,0.0425,0.0419,0.0396,0.0345,0.0344,0.0442,0.0454,0.0464,0.0554,0.0355,0,0,0,0,0,0.1331,0.1304,0.1133,0.1125,0.1078,0.0929,0.0883,0.08,0.0705,0.0672,0.0588,0.0521,0.0469,0.0448,0.0389,0.0381,0.0439,0.0394,0.0405,0.0415,0.0477,0.0599,0.0629,0.0304,0.0303,0.0303,0,0,0.1394,0.1307,0.129,0.1159,0.1075,0.102,0.0902,0.0841,0.0798,0.0672,0.0624,0.0548,0.047,0.0447,0.0433,0.0417,0.0535,0.0418,0.0426,0.0485,0.0605,0.0638,0.0667,0.0305,0.0305,0.0305,0,0,0.1498,0.1432,0.1427,0.1348,0.1219,0.112,0.1105,0.0943,0.0884,0.081,0.0718,0.0682,0.0574,0.0543,0.0512,0.0557,0.0577,0.0519,0.0659,0.0775,0.0806,0.0832,0.095,0.0987,0.0538,0.0538,0.0538,0,0.1579,0.1536,0.1418,0.1391,0.1342,0.1172,0.1151,0.1069,0.0911,0.0889,0.0822,0.0714,0.0637,0.0646,0.0652,0.0589,0.066,0.0614,0.0798,0.0825,0.0851,0.0965,0.1004,0.0545,0.0544,0.0543,0.0542,0,0.1644,0.1621,0.1627,0.1524,0.1468,0.1431,0.1282,0.1236,0.1138,0.1045,0.1008,0.0904,0.0859,0.0814,0.0743,0.0865,0.0859,0.0791,0.0781,0.0893,0.1003,0.1042,0.0554,0.0552,0.055,0.0548,0,0,0.175,0.1684,0.1678,0.1655,0.1531,0.1478,0.1454,0.1363,0.1358,0.1239,0.125,0.1157,0.1107,0.1074,0.0984,0.1075,0.1289,0.1028,0.1031,0.1176,0.1579,0.1596,0.1639,0.1262,0.127,0.1275,0.1586,0,0.1815,0.182,0.1761,0.1756,0.1727,0.1623,0.1606,0.1524,0.1443,0.1418,0.1346,0.1309,0.1199,0.1184,0.1266,0.1245,0.1396,0.1213,0.1424,0.1431,0.1459,0.1686,0.1707,0.1989,0.1623,0.1629,0.1634,0,0.1839,0.1845,0.1864,0.1841,0.1824,0.1811,0.1771,0.1734,0.1684,0.1635,0.1628,0.1542,0.1601,0.1504,0.1663,0.1552,0.1627,0.1641,0.1652,0.1665,0.1523,0.1814,0.2072,0.2001,0.1693,0.1688,0.1684,0,0.1884,0.1893,0.1919,0.1905,0.1865,0.1882,0.1861,0.1808,0.1785,0.179,0.1794,0.1821,0.1827,0.1931,0.1911,0.183,0.2117,0.1993,0.2112,0.2111,0.2176,0.217,0.2426,0.2244,0.2243,0.2243,0.2242,0,0.1907,0.1915,0.1953,0.1952,0.1987,0.1953,0.1976,0.1955,0.1958,0.1951,0.1919,0.1942,0.1946,0.2035,0.2058,0.2213,0.2254,0.224,0.2235,0.2215,0.2209,0.2178,0.204,0.2254,0.2252,0.2249,0.2247,0,0.1869,0.1908,0.1926,0.1968,0.1986,0.1996,0.2014,0.202,0.2048,0.2059,0.2074,0.2091,0.2208,0.2235,0.2391,0.2402,0.2502,0.2593,0.2564,0.2552,0.2561,0.2426,0.2627,0.2598,0.2816,0.2818,0.2821,0,0.1829,0.1847,0.1921,0.1936,0.1945,0.1981,0.1986,0.2032,0.2035,0.2123,0.2127,0.2267,0.2301,0.2551,0.2639,0.28,0.2654,0.2925,0.2782,0.2677,0.2523,0.236,0.2306,0.292,0.2923,0.2925,0.2927,0,0.1743,0.1784,0.1808,0.1864,0.1893,0.1925,0.1958,0.1988,0.2037,0.2087,0.2167,0.2241,0.2486,0.2628,0.2851,0.2946,0.2811,0.2982,0.2909,0.2708,0.252,0.2447,0.2573,0.295,0.2947,0.2946,0.2945,0.2944,0.1654,0.1659,0.1717,0.176,0.1801,0.1837,0.184,0.1894,0.1942,0.1989,0.2131,0.223,0.2516,0.2817,0.2947,0.3144,0.298,0.3109,0.2987,0.286,0.275,0.2933,0.3248,0.3247,0.3247,0.3247,0.3246,0,0.1514,0.1557,0.1598,0.1646,0.1661,0.1731,0.1777,0.1771,0.1799,0.1909,0.199,0.2263,0.2535,0.2804,0.3116,0.3129,0.3063,0.308,0.2864,0.2834,0.3087,0.3006,0.3239,0.3239,0.3239,0.3239,0.3239,0.3239,0.1434,0.144,0.1493,0.1501,0.1536,0.1525,0.1543,0.1567,0.1632,0.1738,0.1868,0.2028,0.2396,0.2803,0.3032,0.3037,0.2826,0.2779,0.2686,0.283,0.2822,0.2814,0.2715,0.2883,0.2882,0.2465,0.2461,0.2458]},{"header":{"parameterUnit":"m.s-1","parameterCategory":2,"la1":30.2991,"la2":30.254,"lo1":-89.0895,"lo2":-89.0444,"dy":0.0017,"dx":0.0017,"nx":28,"ny":28,"refTime":"2024-08-10T03:00:00:Z","depth":"0","parameterNumber":3,"parameterNumberName":"V-component_of_CURRENTS"},"data":[0,0,0,0,0,0,0,0,0,0,0,0,0,0,0,0,0,0,0,0,0,0,0,0,0,0,0,0,0,0,0,0,0,0,0,0,0,0,0,0,0,0,0,0,0,0,0,0,0,0,0,0,0,0,0,0,0,0,-0.137,-0.1372,0,-0.1545,-0.1547,-0.1549,-0.1635,-0.1635,-0.1635,-0.1635,-0.1743,-0.1746,-0.1749,0,0,0,0,0,0,0,0,0,0,0,0,0,-0.1206,-0.1208,-0.137,-0.1372,-0.1375,-0.1545,-0.1547,-0.1549,-0.1635,-0.1635,-0.1635,-0.1635,-0.1742,-0.1745,-0.1749,0,0,0,0,0,0,0,0,0,0,0,0,0,-0.1317,-0.1208,-0.137,-0.1438,-0.1446,-0.1544,-0.1547,-0.155,-0.1635,-0.1635,-0.1635,-0.1635,-0.1741,-0.1745,-0.1749,-0.1774,0,0,-0.1762,-0.1764,0,0,0,0,0,0,0,0,-0.1311,-0.1323,-0.1426,-0.1434,-0.1443,-0.1569,-0.1529,-0.1622,-0.1635,-0.1563,-0.1635,-0.1635,-0.1679,-0.1688,-0.1721,-0.1779,-0.1783,-0.1763,-0.1765,-0.1767,-0.1768,0,0,0,0,0,0,0,-0.1303,-0.1317,-0.1439,-0.1428,-0.1439,-0.1493,-0.1508,-0.1548,-0.1616,-0.1569,-0.1576,-0.1596,-0.1683,-0.1717,-0.1724,-0.1785,-0.1763,-0.1766,-0.1769,-0.1771,-0.1798,-0.1797,0,0,0,0,0,0,-0.1278,-0.1309,-0.1433,-0.1444,-0.1377,-0.1496,-0.1513,-0.1528,-0.1618,-0.1632,-0.1596,-0.16,-0.171,-0.1719,-0.1728,-0.1726,-0.1767,-0.1771,-0.1773,-0.18,-0.1798,-0.1796,0,0,0,0,0,0,-0.1274,-0.1287,-0.1426,-0.1381,-0.1403,-0.1498,-0.1515,-0.1531,-0.1563,-0.1639,-0.1652,-0.161,-0.171,-0.1722,-0.1769,-0.1732,-0.1773,-0.1777,-0.1802,-0.1799,-0.1797,-0.1744,0,0,0,0,0,0,-0.1268,-0.1284,-0.1288,-0.1379,-0.1405,-0.147,-0.1515,-0.1535,-0.1576,-0.1582,-0.1656,-0.1667,-0.1711,-0.1762,-0.1773,-0.1738,-0.178,-0.1804,-0.1801,-0.1798,-0.1748,-0.174,-0.1733,0,0,0,0,0,-0.1261,-0.1268,-0.1286,-0.1302,-0.1405,-0.147,-0.1487,-0.1555,-0.1576,-0.1585,-0.1644,-0.1664,-0.1746,-0.1766,-0.1779,-0.1744,-0.1806,-0.1802,-0.1798,-0.1751,-0.1741,-0.1733,0,0,0,0,0,0,-0.1207,-0.1281,-0.1302,-0.1333,-0.1387,-0.1484,-0.1506,-0.1547,-0.1604,-0.1606,-0.1674,-0.1689,-0.1705,-0.1731,-0.1751,-0.1735,-0.1765,-0.1764,-0.1725,-0.1716,-0.1709,-0.1642,-0.1784,0,0,0,0,0,-0.1193,-0.1214,-0.1288,-0.1312,-0.1333,-0.1414,-0.145,-0.149,-0.1554,-0.158,-0.1638,-0.1676,-0.1698,-0.1716,-0.1746,-0.1759,-0.1726,-0.1731,-0.1723,-0.1717,-0.1667,-0.1592,-0.1572,-0.1783,-0.1783,-0.1783,0,0,-0.1181,-0.1224,-0.1237,-0.1301,-0.1351,-0.1375,-0.1435,-0.1478,-0.149,-0.158,-0.1617,-0.1661,-0.1696,-0.1709,-0.1713,-0.1728,-0.1645,-0.1711,-0.1706,-0.1659,-0.1585,-0.1565,-0.1546,-0.178,-0.178,-0.1781,0,0,-0.1167,-0.1199,-0.1209,-0.1245,-0.1305,-0.1347,-0.135,-0.1435,-0.1459,-0.1503,-0.1554,-0.1572,-0.1636,-0.1644,-0.1655,-0.1615,-0.1609,-0.1623,-0.1536,-0.1465,-0.1446,-0.143,-0.1387,-0.1367,-0.1618,-0.1618,-0.1618,0,-0.115,-0.1173,-0.1222,-0.1239,-0.126,-0.1323,-0.133,-0.1361,-0.1451,-0.1446,-0.1495,-0.1531,-0.1587,-0.1553,-0.1553,-0.1594,-0.1563,-0.1579,-0.1453,-0.1436,-0.1419,-0.138,-0.1358,-0.1615,-0.1615,-0.1615,-0.1616,0,-0.1147,-0.1159,-0.1167,-0.1198,-0.1221,-0.124,-0.128,-0.1297,-0.1331,-0.1352,-0.1336,-0.1407,-0.1418,-0.1437,-0.1497,-0.1404,-0.1425,-0.1457,-0.1476,-0.1395,-0.1359,-0.1337,-0.161,-0.1611,-0.1612,-0.1613,0,0,-0.112,-0.1156,-0.1158,-0.1156,-0.1197,-0.1215,-0.1207,-0.1208,-0.1183,-0.1224,-0.118,-0.1221,-0.124,-0.1249,-0.1308,-0.1255,-0.116,-0.1307,-0.1305,-0.1262,-0.101,-0.1081,-0.1065,-0.1173,-0.1168,-0.1164,-0.1041,0,-0.1101,-0.111,-0.1132,-0.1123,-0.1124,-0.1152,-0.1133,-0.113,-0.114,-0.1116,-0.1107,-0.1101,-0.1171,-0.1187,-0.1136,-0.1164,-0.1094,-0.119,-0.1094,-0.109,-0.1161,-0.1038,-0.1055,-0.095,-0.102,-0.1017,-0.1014,0,-0.1081,-0.1092,-0.1081,-0.1068,-0.1068,-0.1064,-0.1031,-0.1027,-0.0981,-0.0982,-0.0939,-0.0956,-0.0901,-0.0976,-0.0887,-0.0948,-0.0952,-0.0956,-0.0953,-0.1007,-0.1118,-0.1036,-0.0908,-0.0966,-0.0981,-0.0983,-0.0986,0,-0.103,-0.1044,-0.1027,-0.1033,-0.1033,-0.1014,-0.1008,-0.0976,-0.0953,-0.0893,-0.0865,-0.0795,-0.078,-0.0729,-0.0778,-0.0818,-0.0675,-0.074,-0.0782,-0.0789,-0.0772,-0.0786,-0.0676,-0.0614,-0.0615,-0.0615,-0.0615,0,-0.099,-0.0971,-0.1004,-0.0995,-0.0958,-0.097,-0.0919,-0.0903,-0.0858,-0.0801,-0.0793,-0.0741,-0.0714,-0.0666,-0.0689,-0.0668,-0.0599,-0.071,-0.0734,-0.0761,-0.0775,-0.0804,-0.0854,-0.0611,-0.0611,-0.0612,-0.0613,0,-0.0913,-0.0941,-0.092,-0.093,-0.0932,-0.0901,-0.0886,-0.0843,-0.0815,-0.0744,-0.0719,-0.0667,-0.061,-0.0595,-0.0532,-0.0574,-0.0598,-0.0559,-0.0614,-0.0646,-0.0764,-0.0812,-0.0766,-0.0818,-0.0553,-0.0553,-0.0554,0,-0.0863,-0.0853,-0.0873,-0.0864,-0.0866,-0.0846,-0.0822,-0.0815,-0.0779,-0.0708,-0.0656,-0.059,-0.0543,-0.0482,-0.0521,-0.0512,-0.0597,-0.0548,-0.062,-0.0717,-0.0787,-0.0885,-0.094,-0.0582,-0.0582,-0.0583,-0.0583,0,-0.0768,-0.0785,-0.0778,-0.078,-0.0769,-0.0748,-0.0726,-0.0698,-0.0673,-0.0613,-0.0532,-0.049,-0.0474,-0.0462,-0.0493,-0.0525,-0.0638,-0.0564,-0.0611,-0.0731,-0.0873,-0.0956,-0.075,-0.0589,-0.0588,-0.0588,-0.0587,-0.0587,-0.069,-0.0672,-0.0687,-0.0678,-0.067,-0.0637,-0.0598,-0.0571,-0.0505,-0.0395,-0.0412,-0.0302,-0.0377,-0.0421,-0.0512,-0.0655,-0.0691,-0.0695,-0.0723,-0.0799,-0.0902,-0.0732,-0.065,-0.065,-0.065,-0.065,-0.065,0,-0.0592,-0.0597,-0.0584,-0.0572,-0.0542,-0.0566,-0.0516,-0.0461,-0.0369,-0.0273,-0.0197,-0.0128,-0.0239,-0.0373,-0.0567,-0.0736,-0.0865,-0.0836,-0.0933,-0.0964,-0.0734,-0.0791,-0.08,-0.08,-0.08,-0.08,-0.08,-0.08,-0.0541,-0.0515,-0.0523,-0.0462,-0.0451,-0.0386,-0.0349,-0.0267,-0.0187,-0.0009,0.0108,0.0166,0.0137,-0.0375,-0.0711,-0.0828,-0.0988,-0.1078,-0.1135,-0.0937,-0.0925,-0.0914,-0.0977,-0.1025,-0.1025,-0.1382,-0.1385,-0.1387]}],[{"header":{"parameterUnit":"m.s-1","parameterCategory":2,"la1":30.2991,"la2":30.254,"lo1":-89.0895,"lo2":-89.0444,"dy":0.0017,"dx":0.0017,"nx":28,"ny":28,"refTime":"2024-08-10T03:00:00:Z","depth":"2","parameterNumber":2,"parameterNumberName":"U-component_of_CURRENTS"},"data":[0,0,0,0,0,0,0,0,0,0,0,0,0,0,0,0,0,0,0,0,0,0,0,0,0,0,0,0,0,0,0,0,0,0,0,0,0,0,0,0,0,0,0,0,0,0,0,0,0,0,0,0,0,0,0,0,0,0,0.0403,0.0402,0,0.0302,0.03,0.0299,0.023,0.0229,0.0229,0.0229,0.0182,0.0181,0.018,0,0,0,0,0,0,0,0,0,0,0,0,0,0.0357,0.0359,0.0403,0.0402,0.0401,0.0302,0.03,0.0299,0.023,0.0229,0.0229,0.0229,0.0183,0.0182,0.018,0,0,0,0,0,0,0,0,0,0,0,0,0,0.0326,0.0359,0.0403,0.0357,0.0352,0.0302,0.03,0.0298,0.023,0.0229,0.0229,0.0229,0.0183,0.0182,0.018,0.0177,0,0,0.0175,0.0175,0,0,0,0,0,0,0,0,0.0328,0.0327,0.0365,0.036,0.0355,0.0281,0.0267,0.0261,0.023,0.0273,0.0229,0.0229,0.0223,0.0218,0.0194,0.0174,0.0172,0.0175,0.0174,0.0174,0.0173,0,0,0,0,0,0,0,0.033,0.033,0.036,0.0364,0.0358,0.028,0.0277,0.0264,0.0249,0.0269,0.0265,0.0259,0.022,0.0196,0.0193,0.0172,0.0175,0.0174,0.0173,0.0172,0.0247,0.0249,0,0,0,0,0,0,0.036,0.0334,0.0363,0.0357,0.0344,0.0282,0.0278,0.0302,0.0248,0.024,0.0259,0.0256,0.0199,0.0195,0.0191,0.0262,0.0174,0.0172,0.0171,0.0244,0.0247,0.025,0,0,0,0,0,0,0.036,0.0365,0.0367,0.0343,0.0338,0.0285,0.0311,0.0301,0.0293,0.024,0.0233,0.0266,0.0198,0.0193,0.0201,0.0256,0.0171,0.017,0.024,0.0245,0.0249,0.0353,0,0,0,0,0,0,0.0359,0.0366,0.0381,0.0347,0.0341,0.0355,0.0312,0.0299,0.029,0.0286,0.0244,0.0237,0.0198,0.0204,0.0199,0.0253,0.0169,0.0237,0.0242,0.0247,0.0346,0.0361,0.0373,0,0,0,0,0,0.0358,0.0366,0.0383,0.0385,0.0369,0.0356,0.0346,0.0302,0.0292,0.0294,0.0272,0.0239,0.0237,0.0204,0.0198,0.0253,0.0234,0.0241,0.0247,0.034,0.0358,0.0373,0,0,0,0,0,0,0.0311,0.036,0.0377,0.039,0.0392,0.0346,0.0332,0.0322,0.0302,0.0307,0.0258,0.0251,0.0281,0.0259,0.0224,0.0295,0.0238,0.0244,0.0311,0.0327,0.0341,0.0363,0.0167,0,0,0,0,0,0.0326,0.0361,0.0385,0.0386,0.0406,0.0384,0.037,0.0362,0.0343,0.0333,0.0306,0.0297,0.0302,0.0307,0.0295,0.0327,0.0311,0.0367,0.0381,0.0392,0.0411,0.0445,0.0462,0.0272,0.0272,0.0272,0,0,0.0293,0.0329,0.0339,0.0382,0.038,0.0408,0.0374,0.0379,0.0397,0.0335,0.0344,0.0335,0.032,0.0352,0.0367,0.0341,0.0436,0.0401,0.041,0.0422,0.0453,0.0472,0.0488,0.0276,0.0276,0.0275,0,0,0.0249,0.0306,0.0331,0.0365,0.0404,0.0414,0.0434,0.0435,0.0437,0.0457,0.0428,0.046,0.0444,0.0455,0.0458,0.0547,0.0501,0.0552,0.064,0.0674,0.0689,0.0703,0.069,0.0702,0.0565,0.0565,0.0565,0,0.0212,0.0265,0.0322,0.0367,0.0394,0.0435,0.0467,0.0484,0.0478,0.0501,0.048,0.0517,0.05,0.0565,0.0597,0.0579,0.057,0.0573,0.069,0.0703,0.0715,0.0699,0.0711,0.0571,0.057,0.0569,0.0569,0,0.0204,0.0256,0.0273,0.0373,0.0409,0.0444,0.0511,0.0551,0.0578,0.0593,0.0662,0.0655,0.0685,0.0696,0.0669,0.0765,0.072,0.0695,0.0644,0.0741,0.0717,0.0727,0.0579,0.0577,0.0575,0.0574,0,0,0.0129,0.0245,0.0261,0.0312,0.0432,0.0457,0.0542,0.0622,0.0675,0.0718,0.0779,0.0826,0.0847,0.0855,0.0849,0.0886,0.0954,0.0837,0.0836,0.0815,0.0999,0.1022,0.1033,0.0948,0.0951,0.0953,0.0941,0,0.0117,0.0186,0.0261,0.0337,0.0395,0.0496,0.056,0.0647,0.0716,0.0788,0.0858,0.0902,0.0903,0.0924,0.098,0.0953,0.0989,0.0958,0.0917,0.0915,0.0917,0.105,0.0885,0.0867,0.095,0.0952,0.0953,0,0.0128,0.0176,0.0241,0.0356,0.0391,0.0446,0.0595,0.0653,0.0794,0.0843,0.0955,0.0994,0.1091,0.1058,0.1123,0.1102,0.1075,0.105,0.1049,0.1046,0.096,0.079,0.0882,0.0969,0.0967,0.0966,0.0965,0,0.0089,0.0183,0.0233,0.0276,0.0403,0.0459,0.053,0.0673,0.0734,0.0886,0.0939,0.1074,0.1117,0.1157,0.116,0.1138,0.1195,0.1147,0.1142,0.1138,0.0981,0.0963,0.1193,0.1193,0.1193,0.1193,0.1193,0,0.0091,0.014,0.0216,0.0256,0.0324,0.0425,0.0521,0.0616,0.0747,0.0827,0.0961,0.1037,0.1144,0.1201,0.1195,0.1225,0.1233,0.1194,0.1168,0.1013,0.0998,0.1069,0.1055,0.1193,0.1193,0.1193,0.1193,0,0.0072,0.0121,0.0185,0.0283,0.0318,0.0372,0.05,0.0565,0.0685,0.0799,0.0846,0.1012,0.1112,0.1197,0.124,0.125,0.1268,0.1256,0.1061,0.1018,0.1167,0.1158,0.1267,0.1269,0.127,0.1271,0.1272,0,0.0071,0.0097,0.0187,0.0219,0.027,0.0351,0.0413,0.0535,0.0604,0.0773,0.0817,0.0966,0.1085,0.1196,0.1262,0.1311,0.1288,0.1135,0.1099,0.1227,0.1189,0.1179,0.1169,0.0895,0.0893,0.0891,0.0889,0,0.0059,0.009,0.013,0.0193,0.0251,0.0315,0.0405,0.0446,0.0588,0.0682,0.0814,0.0918,0.1083,0.1127,0.1218,0.1195,0.1139,0.1102,0.1289,0.0935,0.0886,0.0845,0.0846,0.0873,0.0874,0.0875,0.0876,0.0877,0.0044,0.0057,0.0105,0.017,0.0226,0.0287,0.0338,0.0424,0.0522,0.0673,0.0765,0.0866,0.0909,0.1032,0.1069,0.109,0.1141,0.1003,0.1004,0.1008,0.1002,0.0961,0.0956,0.0958,0.096,0.0961,0.0963,0,0.0022,0.0047,0.0085,0.0151,0.0194,0.0258,0.0342,0.0385,0.0487,0.0613,0.0747,0.0691,0.0746,0.0812,0.0855,0.0912,0.0868,0.0835,0.0721,0.0735,0.0748,0.0726,0.0609,0.0609,0.0609,0.061,0,0,0.0009,0.003,0.0048,0.011,0.0169,0.0244,0.0298,0.0361,0.0442,0.0528,0.0568,0.0675,0.0707,0.0626,0.0652,0.065,0.0691,0.0621,0.0878,0.075,0.0764,0.0793,0.077,0,0,0,0,0]},{"header":{"parameterUnit":"m.s-1","parameterCategory":2,"la1":30.2991,"la2":30.254,"lo1":-89.0895,"lo2":-89.0444,"dy":0.0017,"dx":0.0017,"nx":28,"ny":28,"refTime":"2024-08-10T03:00:00:Z","depth":"2","parameterNumber":3,"parameterNumberName":"V-component_of_CURRENTS"},"data":[0,0,0,0,0,0,0,0,0,0,0,0,0,0,0,0,0,0,0,0,0,0,0,0,0,0,0,0,0,0,0,0,0,0,0,0,0,0,0,0,0,0,0,0,0,0,0,0,0,0,0,0,0,0,0,0,0,0,-0.0148,-0.0146,0,0.0044,0.0046,0.0048,0.0154,0.0155,0.0155,0.0155,0.014,0.0139,0.0139,0,0,0,0,0,0,0,0,0,0,0,0,0,-0.02,-0.0201,-0.0148,-0.0146,-0.0143,0.0043,0.0046,0.0048,0.0154,0.0155,0.0155,0.0156,0.014,0.0139,0.0139,0,0,0,0,0,0,0,0,0,0,0,0,0,-0.0111,-0.0202,-0.0148,-0.0067,-0.0058,0.0043,0.0046,0.0049,0.0154,0.0155,0.0155,0.0156,0.0141,0.014,0.0138,0.0121,0,0,0.0135,0.0135,0,0,0,0,0,0,0,0,-0.0117,-0.011,-0.0082,-0.0073,-0.0062,0.0076,0.0022,0.0063,0.0154,0.0073,0.0155,0.0156,0.0099,0.0102,0.0139,0.012,0.012,0.0135,0.0134,0.0134,0.0133,0,0,0,0,0,0,0,-0.0123,-0.0116,-0.0073,-0.0079,-0.0067,0.0036,0.0046,0.0032,0.0076,0.008,0.0088,0.011,0.0103,0.014,0.0139,0.0119,0.0135,0.0134,0.0133,0.0133,0.0062,0.0061,0,0,0,0,0,0,-0.0159,-0.0123,-0.0079,-0.0067,-0.0088,0.0035,0.0048,0.0031,0.0082,0.0092,0.011,0.0115,0.0142,0.014,0.0138,0.0085,0.0134,0.0133,0.0132,0.0063,0.0062,0.006,0,0,0,0,0,0,-0.0161,-0.0158,-0.0086,-0.0087,-0.0071,0.0034,0.0015,0.0034,0.005,0.0106,0.0113,0.0103,0.0142,0.014,0.0124,0.0086,0.0132,0.0131,0.0065,0.0063,0.0061,0.0,0,0,0,0,0,0,-0.0164,-0.0161,-0.0206,-0.0092,-0.0072,-0.0056,0.0015,0.0038,0.0064,0.0072,0.0102,0.0104,0.0142,0.0126,0.0123,0.0086,0.013,0.0066,0.0064,0.0062,0.0004,-0.0003,-0.001,0,0,0,0,0,-0.0168,-0.0211,-0.021,-0.0205,-0.0133,-0.0058,-0.004,0.004,0.0062,0.0057,0.0095,0.0102,0.0109,0.0124,0.0121,0.0082,0.0067,0.0064,0.0062,0.0007,-0.0002,-0.0009,0,0,0,0,0,0,-0.02,-0.0202,-0.0198,-0.0228,-0.0169,-0.004,-0.0044,0.0013,0.0044,0.0023,0.009,0.0094,0.0071,0.0078,0.0093,0.0056,0.0086,0.0083,0.0045,0.0037,0.003,0.0004,0.0129,0,0,0,0,0,-0.0248,-0.0307,-0.025,-0.0261,-0.0266,-0.0169,-0.0138,-0.0093,-0.0034,-0.0019,0.0023,0.0042,0.0061,0.0049,0.0065,0.0029,0.0029,0.0001,-0.0006,-0.0011,-0.0035,-0.004,-0.005,0.0051,0.0051,0.0051,0,0,-0.0234,-0.0259,-0.0273,-0.0278,-0.024,-0.0234,-0.0151,-0.0134,-0.011,-0.0037,-0.002,0.0014,0.0049,0.0039,0.0024,0.0034,-0.0043,-0.0015,-0.002,-0.004,-0.0044,-0.0054,-0.0063,0.005,0.005,0.005,0,0,-0.0229,-0.0302,-0.0347,-0.035,-0.0346,-0.0304,-0.0315,-0.0235,-0.0204,-0.0186,-0.0115,-0.0101,-0.0081,-0.0041,-0.0024,-0.0073,-0.007,-0.0081,-0.0149,-0.0154,-0.0162,-0.017,-0.0194,-0.0203,-0.0095,-0.0095,-0.0095,0,-0.0207,-0.0275,-0.0328,-0.0376,-0.037,-0.0349,-0.0351,-0.0329,-0.0245,-0.0226,-0.0209,-0.0139,-0.0115,-0.0099,-0.0103,-0.0091,-0.01,-0.0117,-0.0163,-0.017,-0.0177,-0.02,-0.0209,-0.0098,-0.0098,-0.0097,-0.0097,0,-0.0228,-0.0296,-0.0324,-0.0404,-0.0416,-0.042,-0.0417,-0.0426,-0.0402,-0.0345,-0.0331,-0.0274,-0.023,-0.0221,-0.0179,-0.0207,-0.0201,-0.0161,-0.0142,-0.0191,-0.0212,-0.022,-0.0103,-0.0101,-0.0101,-0.01,0,0,-0.0112,-0.0297,-0.0306,-0.0347,-0.0442,-0.0421,-0.0479,-0.0464,-0.0458,-0.0442,-0.0403,-0.0379,-0.0352,-0.0332,-0.0279,-0.0288,-0.0336,-0.026,-0.0259,-0.0287,-0.0373,-0.0329,-0.0334,-0.0304,-0.0306,-0.0307,-0.0373,0,-0.0084,-0.0177,-0.0284,-0.0327,-0.0366,-0.0437,-0.0456,-0.0474,-0.0475,-0.0453,-0.0446,-0.0394,-0.0395,-0.0357,-0.0386,-0.0317,-0.0361,-0.0324,-0.0321,-0.0322,-0.0278,-0.0343,-0.0291,-0.0342,-0.0381,-0.0382,-0.0383,0,-0.0066,-0.0137,-0.0192,-0.0298,-0.0319,-0.0338,-0.0389,-0.0403,-0.0441,-0.0442,-0.0468,-0.0447,-0.0459,-0.0437,-0.0459,-0.0437,-0.0441,-0.0413,-0.0413,-0.0362,-0.0295,-0.0297,-0.0355,-0.0397,-0.0396,-0.0395,-0.0394,0,0.0051,-0.0067,-0.0104,-0.0144,-0.0262,-0.0281,-0.0316,-0.0377,-0.0372,-0.0422,-0.0412,-0.0468,-0.0429,-0.0485,-0.0475,-0.0469,-0.0489,-0.0461,-0.0447,-0.0444,-0.0395,-0.0384,-0.0518,-0.0518,-0.0517,-0.0517,-0.0517,0,0.0102,0.0075,-0.0044,-0.0067,-0.0072,-0.0185,-0.0183,-0.0243,-0.0288,-0.0274,-0.0375,-0.0356,-0.0435,-0.0457,-0.0498,-0.0505,-0.0525,-0.0488,-0.0464,-0.0415,-0.0406,-0.044,-0.0431,-0.052,-0.0519,-0.0519,-0.0518,0,0.0203,0.0117,0.008,-0.0015,-0.0031,-0.003,-0.0091,-0.0093,-0.0153,-0.0146,-0.0155,-0.0245,-0.0293,-0.0384,-0.0431,-0.0476,-0.0507,-0.0508,-0.0459,-0.0429,-0.0467,-0.046,-0.0527,-0.0526,-0.0526,-0.0525,-0.0525,0,0.0236,0.0223,0.0148,0.0144,0.0102,0.0088,0.0074,-0.0007,-0.0011,-0.006,-0.0039,-0.0099,-0.013,-0.0226,-0.0313,-0.0419,-0.0469,-0.0452,-0.0434,-0.0502,-0.0471,-0.0465,-0.0459,-0.0404,-0.0403,-0.0402,-0.0401,0,0.0317,0.0291,0.0256,0.025,0.0242,0.0229,0.0209,0.0229,0.0143,0.0152,0.0149,0.0124,0.0019,-0.0077,-0.0232,-0.0288,-0.0441,-0.0429,-0.0512,-0.0395,-0.0387,-0.0356,-0.0354,-0.039,-0.0391,-0.0392,-0.0393,-0.0393,0.0392,0.0393,0.0356,0.0355,0.0353,0.0362,0.0377,0.0364,0.0381,0.0388,0.0344,0.0292,0.0136,-0.0037,-0.0155,-0.0302,-0.0305,-0.038,-0.0383,-0.0388,-0.0347,-0.0336,-0.0325,-0.0326,-0.0327,-0.0327,-0.0328,0,0.0478,0.046,0.0462,0.0454,0.0482,0.0446,0.0457,0.0476,0.0521,0.0508,0.053,0.0347,0.0247,0.0025,-0.0149,-0.0243,-0.0249,-0.031,-0.0313,-0.0321,-0.0329,-0.0286,-0.0248,-0.0248,-0.0249,-0.0249,0,0,0.0518,0.0529,0.0514,0.0571,0.0577,0.0605,0.0618,0.0651,0.0642,0.0601,0.0531,0.0552,0.0253,0.0126,-0.0014,-0.0144,-0.0199,-0.0151,-0.0194,-0.0183,-0.0189,-0.0341,-0.0279,0,0,0,0,0]}],[{"header":{"parameterUnit":"m.s-1","parameterCategory":2,"la1":30.2991,"la2":30.254,"lo1":-89.0895,"lo2":-89.0444,"dy":0.0017,"dx":0.0017,"nx":28,"ny":28,"refTime":"2024-08-10T03:00:00:Z","depth":"4","parameterNumber":2,"parameterNumberName":"U-component_of_CURRENTS"},"data":[0,0,0,0,0,0,0,0,0,0,0,0,0,0,0,0,0,0,0,0,0,0,0,0,0,0,0,0,0,0,0,0,0,0,0,0,0,0,0,0,0,0,0,0,0,0,0,0,0,0,0,0,0,0,0,0,0,0,-0.0113,-0.0114,0,-0.0139,-0.0139,-0.0139,-0.0127,-0.0127,-0.0127,-0.0126,-0.0171,-0.0172,-0.0174,0,0,0,0,0,0,0,0,0,0,0,0,0,-0.0076,-0.0077,-0.0113,-0.0114,-0.0115,-0.0139,-0.0139,-0.0139,-0.0127,-0.0127,-0.0126,-0.0126,-0.017,-0.0172,-0.0174,0,0,0,0,0,0,0,0,0,0,0,0,0,-0.0093,-0.0077,-0.0113,-0.0114,-0.0114,-0.0139,-0.0139,-0.0139,-0.0127,-0.0127,-0.0126,-0.0126,-0.017,-0.0172,-0.0174,-0.0199,0,0,-0.0181,-0.0182,0,0,0,0,0,0,0,0,-0.0092,-0.0094,-0.0113,-0.0114,-0.0115,-0.0132,-0.0142,-0.0161,-0.0128,-0.0119,-0.0126,-0.0126,-0.0162,-0.0165,-0.0166,-0.0201,-0.0203,-0.0181,-0.0183,-0.0184,-0.0184,0,0,0,0,0,0,0,-0.0091,-0.0093,-0.012,-0.0114,-0.0115,-0.0121,-0.0122,-0.0146,-0.0141,-0.012,-0.012,-0.0128,-0.0162,-0.0164,-0.0167,-0.0204,-0.0181,-0.0183,-0.0185,-0.0186,-0.0316,-0.0318,0,0,0,0,0,0,-0.0094,-0.0092,-0.012,-0.0122,-0.0105,-0.0122,-0.0123,-0.0124,-0.0141,-0.0143,-0.0128,-0.0127,-0.016,-0.0165,-0.0169,-0.0207,-0.0184,-0.0186,-0.0187,-0.0314,-0.0316,-0.0318,0,0,0,0,0,0,-0.0093,-0.0096,-0.0119,-0.011,-0.0114,-0.0123,-0.0125,-0.0125,-0.0125,-0.0147,-0.0149,-0.0128,-0.016,-0.0166,-0.02,-0.0208,-0.0187,-0.0189,-0.0311,-0.0314,-0.0317,-0.0279,0,0,0,0,0,0,-0.0091,-0.0095,-0.0087,-0.011,-0.0115,-0.0131,-0.0126,-0.0126,-0.0133,-0.0131,-0.0148,-0.0151,-0.016,-0.0197,-0.0203,-0.0211,-0.0191,-0.0308,-0.0313,-0.0316,-0.0278,-0.028,-0.0283,0,0,0,0,0,-0.009,-0.0086,-0.0086,-0.0089,-0.0106,-0.0132,-0.0134,-0.0137,-0.0133,-0.0134,-0.0155,-0.0151,-0.0226,-0.02,-0.0206,-0.0216,-0.0307,-0.0311,-0.0316,-0.0276,-0.028,-0.0283,0,0,0,0,0,0,-0.0077,-0.0085,-0.0086,-0.0087,-0.0107,-0.0131,-0.0132,-0.0138,-0.0154,-0.0155,-0.0169,-0.0175,-0.0213,-0.0231,-0.0202,-0.0273,-0.027,-0.0276,-0.0238,-0.0241,-0.0244,-0.023,-0.0193,0,0,0,0,0,-0.007,-0.006,-0.0084,-0.0087,-0.0095,-0.0113,-0.012,-0.013,-0.0153,-0.0157,-0.0174,-0.0205,-0.024,-0.0251,-0.0286,-0.0315,-0.0305,-0.0333,-0.0336,-0.0337,-0.0336,-0.0342,-0.0343,-0.0334,-0.0334,-0.0334,0,0,-0.0072,-0.0071,-0.007,-0.0082,-0.0094,-0.0114,-0.0115,-0.0134,-0.0152,-0.0163,-0.0188,-0.0215,-0.0254,-0.029,-0.0309,-0.03,-0.0332,-0.0343,-0.0343,-0.0341,-0.0347,-0.0347,-0.0347,-0.0337,-0.0336,-0.0336,0,0,-0.0074,-0.0067,-0.0062,-0.0077,-0.0097,-0.0112,-0.0119,-0.0148,-0.0156,-0.0192,-0.021,-0.024,-0.0289,-0.0312,-0.0332,-0.0375,-0.0351,-0.0393,-0.038,-0.0387,-0.0386,-0.0385,-0.0341,-0.0337,-0.0386,-0.0386,-0.0386,0,-0.0079,-0.0073,-0.007,-0.0077,-0.0093,-0.0112,-0.0133,-0.0149,-0.0187,-0.0199,-0.0202,-0.0273,-0.0301,-0.0338,-0.0354,-0.0376,-0.0358,-0.0353,-0.0384,-0.0384,-0.0384,-0.0339,-0.0334,-0.0385,-0.0385,-0.0385,-0.0385,0,-0.0084,-0.0083,-0.0087,-0.0096,-0.0112,-0.0135,-0.0163,-0.018,-0.0196,-0.0215,-0.0255,-0.0288,-0.0324,-0.0345,-0.036,-0.0382,-0.0359,-0.0385,-0.0359,-0.0381,-0.0333,-0.0329,-0.0383,-0.0383,-0.0384,-0.0384,0,0,-0.0107,-0.009,-0.0096,-0.0097,-0.0125,-0.0143,-0.0171,-0.0203,-0.0216,-0.0247,-0.0261,-0.0319,-0.0321,-0.0346,-0.0364,-0.0369,-0.0344,-0.037,-0.0371,-0.0295,-0.0311,-0.0251,-0.0241,-0.0365,-0.0365,-0.0365,-0.0263,0,-0.0121,-0.0117,-0.0117,-0.014,-0.0146,-0.017,-0.0196,-0.0225,-0.0243,-0.026,-0.0284,-0.031,-0.0325,-0.0333,-0.0341,-0.0355,-0.0338,-0.0366,-0.0329,-0.0327,-0.0247,-0.0237,-0.0365,-0.026,-0.0259,-0.0259,-0.0258,0,-0.0139,-0.0127,-0.0141,-0.0146,-0.0156,-0.0188,-0.022,-0.0245,-0.027,-0.0275,-0.0287,-0.0296,-0.0304,-0.032,-0.0313,-0.0325,-0.0314,-0.0314,-0.0311,-0.0268,-0.0262,-0.0248,-0.0251,-0.0252,-0.0252,-0.0253,-0.0253,0,-0.0146,-0.0152,-0.0155,-0.0163,-0.0179,-0.0207,-0.0232,-0.0263,-0.0273,-0.0282,-0.0272,-0.0282,-0.0276,-0.028,-0.0262,-0.0288,-0.0236,-0.0277,-0.0201,-0.0195,-0.0292,-0.0295,-0.0266,-0.0267,-0.0267,-0.0267,-0.0267,0,-0.0162,-0.0167,-0.0166,-0.0172,-0.0194,-0.0219,-0.0251,-0.0264,-0.0284,-0.028,-0.028,-0.0258,-0.0269,-0.0235,-0.0236,-0.018,-0.0207,-0.0183,-0.017,-0.0277,-0.0279,-0.0286,-0.029,-0.0263,-0.0264,-0.0265,-0.0265,0,-0.0174,-0.0168,-0.0168,-0.0185,-0.0197,-0.0222,-0.0256,-0.0262,-0.0283,-0.0271,-0.0265,-0.0232,-0.0179,-0.0157,-0.0138,-0.0128,-0.01,-0.0073,-0.0131,-0.0126,-0.0058,-0.0062,0.0014,0.0016,0.0019,0.0021,0.0023,0,-0.0177,-0.0178,-0.0174,-0.017,-0.0188,-0.0221,-0.0232,-0.0262,-0.0257,-0.0247,-0.0225,-0.017,-0.014,-0.0032,-0.0038,0.0014,-0.0,0.0035,-0.0068,-0.0037,-0.0032,-0.0039,-0.0046,0.0026,0.0027,0.0028,0.0028,0,-0.0185,-0.0184,-0.0175,-0.016,-0.0172,-0.0167,-0.0191,-0.0181,-0.0199,-0.0219,-0.0158,-0.0114,-0.0036,0.0006,0.0073,0.0084,0.0014,0.0059,0.0052,-0.0045,-0.0021,-0.002,-0.0029,0.0037,0.0035,0.0035,0.0034,0,-0.0192,-0.018,-0.0159,-0.015,-0.0138,-0.0107,-0.0124,-0.011,-0.0112,-0.0116,-0.0092,-0.0041,-0.0029,0.0047,0.0091,0.0135,0.0107,0.0091,0.0081,0.0072,0.0041,0.0077,0.0191,0,0,0,0,0,-0.0195,-0.0168,-0.0146,-0.0114,-0.0091,-0.0085,-0.0081,-0.0096,-0.0119,-0.0063,-0.0082,-0.0013,0.0059,0.0085,0.0142,0.0116,0.0113,0.0182,0.0089,0.0083,0.0073,0.0029,0,0,0,0,0,0,-0.0189,-0.0166,-0.0139,-0.0082,-0.0052,-0.0025,-0.0013,-0.0025,0.0002,-0.0023,0.0025,-0.0007,0.0074,0.0031,0.0142,0.015,0.0097,0.0196,0.0197,0.0088,0.0079,0.0072,0.0023,0,0,0,0,0]},{"header":{"parameterUnit":"m.s-1","parameterCategory":2,"la1":30.2991,"la2":30.254,"lo1":-89.0895,"lo2":-89.0444,"dy":0.0017,"dx":0.0017,"nx":28,"ny":28,"refTime":"2024-08-10T03:00:00:Z","depth":"4","parameterNumber":3,"parameterNumberName":"V-component_of_CURRENTS"},"data":[0,0,0,0,0,0,0,0,0,0,0,0,0,0,0,0,0,0,0,0,0,0,0,0,0,0,0,0,0,0,0,0,0,0,0,0,0,0,0,0,0,0,0,0,0,0,0,0,0,0,0,0,0,0,0,0,0,0,0.0192,0.0192,0,0.0111,0.011,0.0109,0.0108,0.0109,0.011,0.0111,0.0105,0.0104,0.0102,0,0,0,0,0,0,0,0,0,0,0,0,0,0.0286,0.0285,0.0192,0.0191,0.0191,0.0111,0.011,0.0109,0.0108,0.0109,0.011,0.0112,0.0105,0.0104,0.0102,0,0,0,0,0,0,0,0,0,0,0,0,0,0.0229,0.0285,0.0193,0.0181,0.0179,0.0111,0.011,0.0108,0.0107,0.0109,0.0111,0.0112,0.0106,0.0104,0.0102,0.0058,0,0,0.0097,0.0096,0,0,0,0,0,0,0,0,0.0232,0.0225,0.0184,0.0182,0.018,0.0122,0.014,0.0095,0.0107,0.0134,0.0111,0.0113,0.0117,0.0114,0.0093,0.0057,0.0057,0.0096,0.0095,0.0094,0.0094,0,0,0,0,0,0,0,0.0236,0.0228,0.0159,0.0183,0.018,0.0159,0.0153,0.0131,0.0118,0.0132,0.0132,0.0123,0.0116,0.0094,0.0093,0.0057,0.0096,0.0095,0.0094,0.0093,0.005,0.005,0,0,0,0,0,0,0.0249,0.0232,0.0162,0.0157,0.0211,0.0156,0.015,0.0138,0.0116,0.0114,0.0122,0.0123,0.0097,0.0095,0.0093,0.0096,0.0095,0.0093,0.0092,0.005,0.005,0.005,0,0,0,0,0,0,0.0251,0.0243,0.0165,0.0194,0.0183,0.0154,0.014,0.0136,0.0134,0.0108,0.0108,0.0128,0.0098,0.0095,0.0075,0.0095,0.0092,0.009,0.005,0.005,0.005,0.0067,0,0,0,0,0,0,0.0254,0.0244,0.0246,0.0194,0.0181,0.0141,0.0138,0.0133,0.0126,0.0128,0.0113,0.0113,0.0099,0.0078,0.0074,0.0092,0.0089,0.0051,0.005,0.005,0.0067,0.0068,0.0069,0,0,0,0,0,0.0257,0.0249,0.0246,0.0238,0.0183,0.0141,0.0133,0.0117,0.0125,0.0123,0.0104,0.0114,0.0076,0.0075,0.007,0.0089,0.0051,0.005,0.005,0.0067,0.0068,0.0069,0,0,0,0,0,0,0.0281,0.0246,0.0243,0.0223,0.0195,0.0142,0.0141,0.0125,0.0105,0.0116,0.0096,0.0093,0.0085,0.0079,0.0079,0.0077,0.0072,0.0071,0.0086,0.0087,0.0088,0.0085,0.0087,0,0,0,0,0,0.0289,0.028,0.024,0.0225,0.0221,0.0185,0.017,0.0155,0.0126,0.012,0.0102,0.0091,0.0074,0.0075,0.0055,0.0046,0.0035,0.006,0.0061,0.0062,0.0056,0.0041,0.004,0.005,0.005,0.005,0,0,0.0288,0.0272,0.0264,0.0231,0.0215,0.0191,0.0181,0.0163,0.0141,0.0122,0.0099,0.0087,0.0069,0.0057,0.0056,0.006,0.0055,0.0061,0.0062,0.0056,0.004,0.0039,0.0038,0.005,0.005,0.005,0,0,0.028,0.028,0.0271,0.0254,0.0233,0.0208,0.0209,0.0167,0.0159,0.0124,0.0111,0.0101,0.0075,0.0062,0.0054,0.0047,0.0053,0.0062,0.0071,0.0057,0.0056,0.0055,0.0048,0.0046,0.0071,0.0071,0.0071,0,0.0281,0.0262,0.026,0.0249,0.0232,0.022,0.0198,0.018,0.0131,0.0118,0.0127,0.008,0.0074,0.0053,0.0058,0.005,0.0047,0.007,0.0059,0.0057,0.0056,0.0049,0.0047,0.0072,0.0072,0.0072,0.0072,0,0.0258,0.0251,0.0249,0.0231,0.0216,0.0196,0.0174,0.0162,0.0154,0.0126,0.0107,0.0086,0.006,0.0071,0.0063,0.0057,0.006,0.0055,0.0057,0.0056,0.0049,0.0046,0.0073,0.0073,0.0073,0.0072,0,0,0.0218,0.0229,0.0224,0.0219,0.0204,0.0179,0.0168,0.0134,0.0118,0.0102,0.0075,0.0064,0.0063,0.0054,0.0053,0.0054,0.005,0.0061,0.006,0.0056,0.0029,0.0005,-0.0,0.005,0.005,0.0049,0.0031,0,0.0193,0.0175,0.0181,0.0152,0.0142,0.014,0.012,0.0098,0.0087,0.0061,0.0063,0.004,0.0056,0.0052,0.0054,0.0043,0.0043,0.0056,0.0028,0.0027,0.0007,-0.0005,0.0047,0.0029,0.0028,0.0027,0.0027,0,0.0152,0.0149,0.0125,0.0116,0.0111,0.0091,0.0063,0.0046,0.0029,0.0024,0.0019,0.0015,0.0012,0.0028,0.0017,0.0029,0.003,0.003,0.0029,-0.0004,-0.0003,0.0027,0.0022,0.0022,0.0023,0.0023,0.0024,0,0.0109,0.0099,0.0081,0.0076,0.0067,0.0055,0.0047,0.003,0.0015,0.0006,-0.0004,-0.0011,-0.0014,-0.0014,-0.0004,0.0006,-0.0014,-0.0008,-0.003,-0.0031,-0.001,-0.0009,-0.0021,-0.0021,-0.0021,-0.0021,-0.0021,0,0.0068,0.0048,0.0062,0.0049,0.0017,0.0028,-0.0005,-0.001,-0.0017,-0.0036,-0.0021,-0.0038,-0.0022,-0.0028,-0.0018,-0.0034,-0.0029,-0.0037,-0.0043,-0.0001,0.0002,-0.0011,-0.001,-0.0022,-0.0022,-0.0021,-0.0021,0,0.0023,0.0031,0.0009,0.0005,-0.0002,-0.0021,-0.0032,-0.0053,-0.0045,-0.0065,-0.0065,-0.0064,-0.007,-0.0058,-0.0061,-0.006,-0.0069,-0.0074,-0.0028,-0.0029,-0.0071,-0.0068,-0.011,-0.0111,-0.0112,-0.0113,-0.0113,0,0.0001,-0.0012,-0.0025,-0.004,-0.0041,-0.0061,-0.008,-0.0075,-0.0085,-0.0085,-0.0099,-0.0102,-0.0101,-0.0118,-0.0108,-0.0105,-0.01,-0.0104,-0.0089,-0.0082,-0.0083,-0.0079,-0.0075,-0.0115,-0.0115,-0.0115,-0.0116,0,-0.0038,-0.0041,-0.0052,-0.0074,-0.0095,-0.0123,-0.0135,-0.0143,-0.013,-0.0131,-0.0128,-0.0129,-0.014,-0.0136,-0.0131,-0.0128,-0.0103,-0.0114,-0.0111,-0.0097,-0.0088,-0.0087,-0.0083,-0.0119,-0.0119,-0.0118,-0.0118,0,-0.0067,-0.0079,-0.0085,-0.0106,-0.0133,-0.0158,-0.0168,-0.017,-0.0174,-0.0151,-0.016,-0.015,-0.0143,-0.0151,-0.0151,-0.0148,-0.0147,-0.0141,-0.0137,-0.0134,-0.0134,-0.0126,-0.0181,0,0,0,0,0,-0.009,-0.0097,-0.0117,-0.0133,-0.0156,-0.017,-0.0193,-0.0194,-0.018,-0.018,-0.0159,-0.0164,-0.0163,-0.0168,-0.0169,-0.018,-0.0155,-0.0184,-0.0147,-0.0137,-0.0133,-0.0132,0,0,0,0,0,0,-0.0108,-0.012,-0.0118,-0.0141,-0.0154,-0.0183,-0.0197,-0.0194,-0.0187,-0.017,-0.0169,-0.0164,-0.0165,-0.0149,-0.0164,-0.0167,-0.0146,-0.0182,-0.0182,-0.0139,-0.0136,-0.0133,-0.013,0,0,0,0,0]}]]